Location: Grandview
(34.8900°N, 117.1058°W)
Time: 21:55:25
(UTC-07:00)

Tiangong 1 - Pass Details

Date: 07 October 2017
Orbit: 293 x 320 km, 42.8° (Epoch: 20 October)

Event Time Altitude Azimuth Distance (km) Brightness Sun altitude
Rises 18:47:36 0° 264° (W) 2,039 7.6 -5.7°
Reaches altitude 10° 18:49:43 10° 275° (W) 1,205 5.3 -6.2°
Maximum altitude 18:52:10 30° 340° (NNW) 588 2.2 -6.7°
Drops below altitude 10° 18:54:35 10° 46° (NE) 1,192 3.1 -7.2°
Enters shadow 18:55:17 - 51° (NE) 1,463 3.5 -7.3°
